Showing default

PROPCUBE 3, 40973

Orbit data source: Space-Track

PROPCUBE 3, 40973 is a payload satellite owned by USN PGS (US) in LEO that was launched on Thu, 08 Oct 2015 UTC via an ATLAS V 401 launch vehicle from the Air Force Western Test Range (AFWTR). Payloads include a variety of satellites, spacecraft, and rockets equipped with specific instruments for various scientific and technological missions. These include communications satellites like Starlink; space stations such as the ISS; scientific satellites like the Hubble; Earth observation satellites from companies like Planet Labs, Umbra, and HawkEye 360; GPS; miniature CubeSats for education and research; and military/defense satellites.

Loading next visibility...
PROPCUBE 3 details
Identifier
40973, 2015-058K
Orbit
LEO
Last TLE update22 hours ago
Origin
Flag of USUSN PGS (US)
ManufacturerTyvak NSS
MissionOperational Commercial Technology
Bus & MotorCUBESAT 1U, Unknown motor
Mass1 kg wet, 1 kg dry
Launch date (UTC)
2015-10-08 (9 years ago)
Launch vehicle
ATLAS V 401
Launch site
Air Force Western Test Range (AFWTR)
Object type
Payload
Rocket body
Debris
Shape & HBRBox, 0.1 m
Radar Cross Section0.015 m², Small (<0.1 m²)

Expand to show TLE details & history

TLE from 22 hours ago
0 PROPCUBE 3
1 40973U 15058K   24360.56452883  .00013952  00000-0  11358-2 0  9998
2 40973  64.7694 128.6823 0180549 249.5517 108.6129 14.87834795 34461
Epoch: 2024-12-25T13:32Z
Definitive object data (Epoch: 2024-12-25T13:32:55.29Z)
Latitude0.00001°
Longitude-169.10453°
Altitude648.976 km
Speed7.511 km/s
True Right ascension08h 34m 43s
True Declination0° 00' 00"
Sunlit
Object was in full shadow at TLE epoch
Visualization TLE readout
Latitude15.98161°
Longitude0.38333°
Altitude597.017 km
Speed7.568 km/s
Apparent Right ascension21h 01m 33s
Apparent Declination-11° 13' 57"
Sunlit
Object is in daylight
Visualization observer readout
Local Sidereal Time10:37:11
Azimuth43.023° NE
Elevation-54.363°
Doppler factor1
Orbital elements
Apogee altitude729.32 km
Perigee altitude477.223 km
Semi-major axis6,981.408 km
Eccentricity0.0180549
Inclination64.7694°
RAAN128.6823°
Arg. of periapsis249.5517°
True anomaly110.55923°
Mean anomaly108.6129°
Eccentric anomaly109.58751°
Mean motion3.72073 °/min
BSTAR0.0011358
Orbital period96.76 mins
Loading maneuver chart data...
Loading historical data...
Loading historical data...
Loading historical data...
Loading historical data...
Loading historical data...
Loading historical data...
Loading historical data...

PROPCUBE 3 Visibility forecast

Observer location: undefined°, undefined

Span
Click to sort rows by Start time (UTC) header in descending order
Start Az.
Max El. time (UTC)
Max El. Az.
Max El.
End time (UTC)
End Az.
5 mins2024-12-26 12:21:52.398Z291.999° WNW2024-12-26 12:23:52.398Z315.85° NNW13.674°2024-12-26 12:26:52.398Z352.453° N
7 mins2024-12-26 19:08:52.398Z335.778° NNW2024-12-26 19:11:52.398Z37.772° NE43.071°2024-12-26 19:15:52.398Z139.57° SSE
6 mins2024-12-27 09:14:52.398Z148.922° SSE2024-12-27 09:16:52.398Z116.963° SE22.482°2024-12-27 09:20:52.398Z60.124° ENE
8 mins2024-12-27 10:52:52.398Z240.831° WSW2024-12-27 10:56:52.398Z317.892° NNW34.408°2024-12-27 11:00:52.398Z17.588° NNE
|